EW7893 Staten Island NY US current weather conditions

sailwx.info

Wind from 006

Air temperature 3.9° C
Dewpoint -2.9° C

Last reported at 2020-Jan-28 23:00 UTC.
Time now 2020-Jan-28 23:55 UTC

Location: N 40°37' W 074°09'.
View on Google Maps.

See reports from other nearby stations

  
Tides and Currents Weather Stations Pressure Air Temp Water Temp Dewpoint Dewpoint Depression Visibility Wind Speed Wind Dir Waves Ship Positions
date/time (UTC)wind fromknots sea level pressurealtimeterstation pressurevisibilityair tempwater tempwave heightnotes
2020-Jan-28 23:00 006 3.9
2020-Jan-28 22:48 031 1 gusting 8 3.9
2020-Jan-28 22:31 353 1 gusting 6 4.4
2020-Jan-28 22:15 058 2 gusting 6 4.4
2020-Jan-28 22:01 312 1 gusting 7 4.4
2020-Jan-28 21:45 320 2 gusting 6 4.4
2020-Jan-28 21:33 153 1 gusting 6 4.4
2020-Jan-28 21:17 316 0 gusting 5 4.4
2020-Jan-28 20:47 238 4.4
2020-Jan-28 20:30 340 0 gusting 6 5.0
2020-Jan-28 20:15 028 3 gusting 11 5.0
2020-Jan-28 20:01 299 3 gusting 15 5.0
2020-Jan-28 19:45 033 1 gusting 8 5.0
2020-Jan-28 19:30 307 3 gusting 10 5.0
2020-Jan-28 19:17 345 1 gusting 13 5.0
2020-Jan-28 19:00 347 2 gusting 10 5.0
2020-Jan-28 18:48 025 3 gusting 10 5.6
2020-Jan-28 18:31 061 4 gusting 8 5.6
2020-Jan-28 18:15 035 3 gusting 13 5.6
2020-Jan-28 18:01 328 1 gusting 7 6.1
2020-Jan-28 17:46 030 1 gusting 7 6.7
2020-Jan-28 17:31 311 2 gusting 6 6.1
2020-Jan-28 17:16 259 2 gusting 8 6.1
2020-Jan-28 17:00 345 2 gusting 8 6.1
2020-Jan-28 16:46 052 1 gusting 6 6.1
2020-Jan-28 16:31 280 2 gusting 8 6.1
2020-Jan-28 16:15 034 1 gusting 8 5.6
2020-Jan-28 16:01 336 0 gusting 5 5.6
2020-Jan-28 15:46 036 4 gusting 10 5.6
2020-Jan-28 15:32 312 1 gusting 7 5.0
2020-Jan-28 15:16 194 0 gusting 6 4.4
2020-Jan-28 15:02 021 2 gusting 7 4.4
2020-Jan-28 14:46 256 0 gusting 5 4.4
2020-Jan-28 14:31 229 1 gusting 6 3.9
2020-Jan-28 14:16 327 1 gusting 6 3.3
2020-Jan-28 14:01 330 0 gusting 5 3.3
2020-Jan-28 13:31 301 2.8
2020-Jan-28 13:15 036 2.8
2020-Jan-28 13:02 322 2.8
2020-Jan-28 12:16 283 2.8
2020-Jan-28 12:01 014 0 gusting 4 2.8
2020-Jan-28 11:46 046 2.8
2020-Jan-28 11:31 281 0 gusting 5 2.8
2020-Jan-28 11:15 336 2.8
2020-Jan-28 11:02 001 0 gusting 3 2.8
2020-Jan-28 10:45 085 2 gusting 8 2.8
2020-Jan-28 10:32 318 2.8
2020-Jan-28 10:16 008 2.8
2020-Jan-28 10:00 063 2.8
2020-Jan-28 09:46 035 0 gusting 6 2.8
2020-Jan-28 09:31 348 1 gusting 4 2.8
2020-Jan-28 09:15 311 0 gusting 3 2.8
2020-Jan-28 09:00 353 0 gusting 6 2.8
2020-Jan-28 08:45 065 0 gusting 4 3.3
2020-Jan-28 08:31 325 3.3
2020-Jan-28 08:16 001 0 gusting 6 3.3
2020-Jan-28 08:00 311 3.3
2020-Jan-28 07:47 311 3.3
2020-Jan-28 07:31 360 0 gusting 4 3.3
2020-Jan-28 07:15 257 0 gusting 3 3.3
2020-Jan-28 07:01 327 0 gusting 4 3.3
2020-Jan-28 06:45 326 0 gusting 6 3.3
2020-Jan-28 06:31 079 0 gusting 6 3.9
2020-Jan-28 06:16 041 3.9
2020-Jan-28 06:01 032 3.9
2020-Jan-28 05:46 055 0 gusting 4 3.9
2020-Jan-28 05:30 044 0 gusting 3 3.9
2020-Jan-28 05:16 349 0 gusting 6 3.9
2020-Jan-28 05:00 044 0 gusting 5 3.9
2020-Jan-28 04:47 034 0 gusting 6 3.9
2020-Jan-28 04:31 071 1 gusting 6 4.4
2020-Jan-28 04:16 335 0 gusting 7 4.4
2020-Jan-28 04:03 008 1 gusting 6 4.4
2020-Jan-28 03:46 060 5.0
2020-Jan-28 03:30 330 5.0
2020-Jan-28 03:17 066 5.0
2020-Jan-28 03:01 257 5.0
2020-Jan-28 02:47 035 5.0
2020-Jan-28 02:31 027 5.0
2020-Jan-28 02:16 049 5.6
2020-Jan-28 02:00 233 5.6
2020-Jan-28 01:46 004 0 gusting 3 5.6
2020-Jan-28 01:30 065 5.6
2020-Jan-28 01:15 268 5.6
2020-Jan-28 01:00 004 0 gusting 4 5.6
2020-Jan-28 00:45 271 5.6
2020-Jan-28 00:30 066 5.6
2020-Jan-28 00:16 274 5.6
2020-Jan-28 00:00 335 5.6
2020-Jan-27 23:45 134 6.1
2020-Jan-27 23:32 341 6.1
2020-Jan-27 23:16 079 0 gusting 5 6.1
2020-Jan-27 23:02 298 0 gusting 4 6.1
2020-Jan-27 22:46 012 0 gusting 2 6.1
2020-Jan-27 22:30 087 6.1
2020-Jan-27 22:16 133 6.7
2020-Jan-27 22:01 065 0 gusting 3 6.7
2020-Jan-27 21:45 028 0 gusting 6 6.7
2020-Jan-27 21:31 296 0 gusting 5 7.2
2020-Jan-27 21:16 298 0 gusting 6 7.2
2020-Jan-27 21:02 127 7.8
2020-Jan-27 20:46 327 0 gusting 6 7.2
2020-Jan-27 20:30 041 0 gusting 5 6.7
2020-Jan-27 20:17 357 0 gusting 5 7.2
2020-Jan-27 20:01 062 7.2
2020-Jan-27 19:45 002 0 gusting 6 7.2
2020-Jan-27 19:31 160 0 gusting 7 6.7
2020-Jan-27 19:16 020 0 gusting 6 6.1
2020-Jan-27 19:01 173 1 gusting 6 6.1
2020-Jan-27 18:45 249 0 gusting 6 6.1
2020-Jan-27 18:31 200 1 gusting 7 6.1
2020-Jan-27 18:17 136 2 gusting 6 6.1
2020-Jan-27 18:00 297 0 gusting 7 6.1
2020-Jan-27 17:47 243 2 gusting 8 6.7
2020-Jan-27 17:32 035 0 gusting 5 6.1
2020-Jan-27 17:16 211 2 gusting 10 6.1
2020-Jan-27 17:00 208 2 gusting 7 6.1
2020-Jan-27 16:30 245 1 gusting 6 5.6
2020-Jan-27 16:17 085 3 gusting 8 5.6
2020-Jan-27 16:00 269 1 gusting 8 5.6
2020-Jan-27 15:46 271 1 gusting 7 5.0
2020-Jan-27 15:30 150 1 gusting 6 5.0
2020-Jan-27 15:16 209 2 gusting 8 5.0
2020-Jan-27 15:01 340 2 gusting 6 5.0
2020-Jan-27 14:31 078 3.9
2020-Jan-27 14:15 348 0 gusting 6 3.9
2020-Jan-27 14:02 333 1 gusting 5 3.9
2020-Jan-27 13:46 206 0 gusting 6 3.3
2020-Jan-27 13:30 221 0 gusting 6 3.3
2020-Jan-27 13:16 142 0 gusting 3 2.8
2020-Jan-27 13:00 086 0 gusting 4 2.8
2020-Jan-27 12:46 148 2.8
2020-Jan-27 12:31 031 0 gusting 3 2.8
2020-Jan-27 12:15 161 1 gusting 4 2.8
2020-Jan-27 12:02 159 0 gusting 4 2.8
2020-Jan-27 11:46 143 0 gusting 4 2.8
2020-Jan-27 11:30 167 0 gusting 6 2.8
2020-Jan-27 11:17 204 2.2
2020-Jan-27 11:00 242 1 gusting 5 2.2
2020-Jan-27 10:47 153 0 gusting 5 2.2
2020-Jan-27 10:31 135 0 gusting 4 2.2
2020-Jan-27 10:16 219 0 gusting 7 2.2
2020-Jan-27 10:02 252 2.2
2020-Jan-27 09:47 191 0 gusting 5 2.2
2020-Jan-27 09:35 212 0 gusting 5 2.2
2020-Jan-27 09:16 173 0 gusting 4 2.2
2020-Jan-27 09:03 211 2.2
2020-Jan-27 08:46 223 2.2
2020-Jan-27 08:32 210 2.2
2020-Jan-27 08:16 142 2.2
2020-Jan-27 08:00 165 1.7
2020-Jan-27 07:48 176 1.7
2020-Jan-27 07:31 155 1.7
2020-Jan-27 07:15 139 0 gusting 4 1.1
2020-Jan-27 07:01 223 1.1
2020-Jan-27 06:45 225 1.1
2020-Jan-27 06:32 188 1.1
2020-Jan-27 06:16 169 1.1
2020-Jan-27 06:00 157 1.1
2020-Jan-27 05:47 164 1.1
2020-Jan-27 05:30 149 1.1
2020-Jan-27 05:15 132 1.7
2020-Jan-27 05:00 243 1.7
2020-Jan-27 04:47 167 1.7
2020-Jan-27 04:32 236 1.7
2020-Jan-27 04:15 205 2.2
2020-Jan-27 04:00 229 2.2
2020-Jan-27 03:46 231 2.8
2020-Jan-27 03:30 271 2.8
2020-Jan-27 03:15 258 2.8
2020-Jan-27 03:01 146 2.8
2020-Jan-27 02:45 129 2.8
2020-Jan-27 02:31 228 2.8
2020-Jan-27 02:17 288 3.3
2020-Jan-27 02:01 169 3.3
2020-Jan-27 01:47 270 3.3
2020-Jan-27 01:31 284 0 gusting 5 3.9
2020-Jan-27 01:15 041 0 gusting 5 3.9
2020-Jan-27 01:01 041 3.9
2020-Jan-27 00:46 108 0 gusting 6 4.4
2020-Jan-27 00:31 079 0 gusting 4 4.4
2020-Jan-27 00:16 150 4.4
2020-Jan-27 00:00 316 5.0
2020-Jan-26 23:47 021 0 gusting 5 5.6
2020-Jan-26 23:31 100 0 gusting 6 5.6
2020-Jan-26 23:15 342 1 gusting 7 6.1
2020-Jan-26 23:02 329 1 gusting 6 6.1